Showing default

GAOFEN 1-02, 43259

Orbit data source: Space-Track

GAOFEN 1-02, 43259 is a payload satellite owned by GGKGJ (CN) in SSO that was launched on Sat, 31 Mar 2018 UTC via a CHANG ZHENG 4C launch vehicle from the Taiyaun Space Center, China (TSC). Payloads include a variety of satellites, spacecraft, and rockets equipped with specific instruments for various scientific and technological missions. These include communications satellites like Starlink; space stations such as the ISS; scientific satellites like the Hubble; Earth observation satellites from companies like Planet Labs, Umbra, and HawkEye 360; GPS; miniature CubeSats for education and research; and military/defense satellites.

Loading next visibility...
GAOFEN 1-02 details
Identifier
43259, 2018-031A
Orbit
SSO
Last TLE update3 hours ago
Origin
Flag of CNGGKGJ (CN / PRC)
ManufacturerDFH
MissionOperational Civil Imaging
Bus & MotorCAST-2000, AOCS
Mass805 kg wet, ~700 kg dry
Launch date (UTC)
2018-03-31 (7 years ago)
Launch vehicle
CHANG ZHENG 4C
Launch site
Taiyaun Space Center, China (TSC)
Object type
Payload
Rocket body
Debris
Shape & HBRBox + 2 Pan, 4 m
Radar Cross Section4.991 m², Large (>1 m²)

Expand to show TLE details & history

TLE from 3 hours ago
0 GAOFEN 1-02
1 43259U 18031A   24337.16483260  .00002965  00000-0  43187-3 0  9993
2 43259  97.8013  39.2090 0005624  24.4200 335.7276 14.76568399359766
Epoch: 2024-12-02T03:57Z
Definitive object data (Epoch: 2024-12-02T03:57:21.536Z)
Latitude-0.00001°
Longitude-91.62335°
Altitude639.598 km
Speed7.54 km/s
True Right ascension02h 36m 50s
True Declination0° 00' 00"
Sunlit
Object was in full shadow at TLE epoch
Visualization TLE readout
Latitude-17.68282°
Longitude-89.00577°
Altitude644.176 km
Speed7.536 km/s
Apparent Right ascension23h 45m 11s
Apparent Declination-59° 50' 24"
Sunlit
Object is in full shadow
Visualization observer readout
Local Sidereal Time04:53:44
Azimuth213.682° SW
Elevation-27.97°
Doppler factor1
Orbital elements
Apogee altitude641.163 km
Perigee altitude633.273 km
Semi-major axis7,015.355 km
Eccentricity0.0005624
Inclination97.8013°
RAAN39.209°
Arg. of periapsis24.42°
True anomaly335.70109°
Mean anomaly335.7276°
Eccentric anomaly335.71435°
Mean motion3.69376 °/min
BSTAR0.00043187
Orbital period97.46 mins
Loading maneuver chart data...
Loading historical data...
Loading historical data...
Loading historical data...
Loading historical data...
Loading historical data...
Loading historical data...
Loading historical data...

GAOFEN 1-02 Visibility forecast

Observer location: undefined°, undefined

Span
Click to sort rows by Start time (UTC) header in descending order
Start Az.
Max El. time (UTC)
Max El. Az.
Max El.
End time (UTC)
End Az.
7 mins2024-12-02 17:32:42.989Z358.098° N2024-12-02 17:35:42.989Z277.418° WNW39.773°2024-12-02 17:39:42.989Z208.644° SW
8 mins2024-12-03 04:27:42.989Z172.074° S2024-12-03 04:31:42.989Z228.441° WSW43.841°2024-12-03 04:35:42.989Z343.496° N
|